Location: Cieszkowy
(50.3290°N, 20.5336°E)
Time: 17:04:13
(UTC+00:00)

Cosmos 990 Rocket - Visible Passes

Search period start: 08 September 2024 00:00
Search period end: 18 September 2024 00:00
Orbit: 743 x 766 km, 74.0° (Epoch: 08 September)

Date Brightness Start Highest point End Pass type
(mag) Time Alt. Az. Time Alt. Az. Time Alt. Az.
08 Sep 6.7 18:15:52 10° NW 18:19:18 18° W 18:22:42 10° SW visible
09 Sep 6.1 17:34:08 10° NW 17:38:39 30° W 17:43:07 10° SSW visible
11 Sep 7.0 17:55:18 10° WNW 17:57:55 14° W 18:00:33 10° WSW visible
14 Sep 7.6 17:35:19 10° WNW 17:36:30 11° W 17:37:42 10° WSW visible
